Location: G�ndlingen
(48.0142°N, 7.6396°E)
Time: 02:52:05
(UTC+00:00)

Cosmos 2333 Rocket - Pass Details

Date: 05 July 2020
Orbit: 837 x 864 km, 70.8° (Epoch: 04 August)

Event Time Altitude Azimuth Distance (km) Brightness Sun altitude
Rises 20:39:34 0° 186° (S) 3,389 4.9 -9.2°
Reaches altitude 10° 20:42:05 10° 180° (S) 2,462 4.2 -9.5°
Maximum altitude 20:47:26 46° 109° (ESE) 1,139 2.5 -10.0°
Drops below altitude 10° 20:52:52 10° 38° (NE) 2,496 4.8 -10.6°
Sets 20:55:25 0° 33° (NNE) 3,440 5.7 -10.9°
